Location: Tr�vern
(48.0333°N, 4.6000°W)
Time: 08:41:06
(UTC+00:00)

Cosmos 1908 Rocket - Pass Details

Date: 14 July 2020
Orbit: 605 x 633 km, 82.5° (Epoch: 04 August)

Event Time Altitude Azimuth Distance (km) Brightness Sun altitude
Exits shadow 03:05:55 - 173° (S) 2,270 6.0 -11.5°
Reaches altitude 10° 03:06:34 10° 172° (S) 2,012 5.8 -11.4°
Maximum altitude 03:10:56 55° 94° (E) 764 4.2 -11.0°
Drops below altitude 10° 03:15:19 10° 18° (NNE) 2,022 7.4 -10.5°
Sets 03:17:35 0° 14° (NNE) 2,931 8.3 -10.3°
